Location: Saint-Gilles les Bains
(21.0539°S, 55.2287°E)
Time: 09:16:10
(UTC+04:00)

ISS - Visible Passes

Search period start: 20 April 2018 00:00
Search period end: 30 April 2018 00:00
Orbit: 403 x 406 km, 51.6° (Epoch: 20 April)

Date Brightness Start Highest point End Pass type
(mag) Time Alt. Az. Time Alt. Az. Time Alt. Az.
20 Apr -3.2 05:32:42 14° SSW 05:35:21 53° SE 05:38:32 10° NE visible
20 Apr -1.5 18:53:26 10° NE 18:54:16 11° NE 18:54:16 11° NE visible
21 Apr -1.4 04:43:26 22° ESE 04:43:26 22° ESE 04:45:43 10° E visible
21 Apr -2.9 19:35:18 10° NW 19:37:46 47° WNW 19:37:46 47° WNW visible
22 Apr -3.2 05:26:57 36° WNW 05:27:14 37° NW 05:30:17 10° NNE visible
22 Apr -3.2 18:43:18 10° NNW 18:46:23 38° NE 18:48:29 17° ESE visible
23 Apr -0.9 04:37:46 14° NE 04:37:46 14° NE 04:38:19 10° NE visible
23 Apr -1.6 19:27:55 10° W 19:30:33 22° SW 19:31:47 18° SSW visible
24 Apr -3.0 18:35:01 10° NW 18:38:13 52° SW 18:41:28 10° SSE visible
26 Apr -1.1 18:27:56 10° W 18:30:09 17° SW 18:32:24 10° S visible
